This demonstration page uses our WeatherBlox Daily Observations layout. Learn more.

Left ArrowRight Arrow

Hourly Observations for January 28, 2017

Temp ( °F °C ) Dew Point ( °F °C ) Humidity (%) Winds ( mph kmh ) Pressure ( in mb ) Visibility ( mi km ) Precip ( " mm )
12:59 am 00:59 Clear 37 2.8 21 -6.1 52 52 WNW 13 20 29.88 1012 10 16 0.00 0.00
1:59 am 01:59 Clear 36 2.2 21 -6.1 55 55 WNW 13 20 29.89 1012 10 16 0.00 0.00
2:59 am 02:59 Clear 36 2.2 21 -6.1 55 55 WNW 13 20 29.89 1012 10 16 0.00 0.00
3:59 am 03:59 Clear 35 1.7 22 -5.6 59 59 W 14 22 29.89 1012 10 16 0.00 0.00
4:59 am 04:59 Clear 35 1.7 21 -6.1 57 57 WSW 8 13 29.90 1013 10 16 0.00 0.00
5:59 am 05:59 Clear 33 0.6 20 -6.7 58 58 WSW 8 13 29.91 1013 10 16 0.00 0.00
6:59 am 06:59 Mostly Clear 32 0 20 -6.7 61 61 WSW 9 15 29.91 1013 10 16 0.00 0.00
7:59 am 07:59 Mostly Sunny 34 1.1 21 -6.1 59 59 SW 9 15 29.92 1013 10 16 0.00 0.00
8:59 am 08:59 Mostly Sunny 37 2.8 21 -6.1 52 52 WSW 13 20 29.92 1013 10 16 0.00 0.00
9:59 am 09:59 Mostly Sunny 40 4.4 21 -6.1 47 47 WSW 13 20 29.91 1013 10 16 0.00 0.00
10:59 am 10:59 Mostly Cloudy 43 6.1 22 -5.6 43 43 W 17 28 29.91 1013 10 16 0.00 0.00
11:59 am 11:59 Partly Cloudy 44 6.7 22 -5.6 41 41 W 17 28 29.88 1012 10 16 0.00 0.00
12:59 pm 12:59 Partly Cloudy 47 8.3 22 -5.6 37 37 WSW 18 30 29.83 1010 10 16 0.00 0.00
1:59 pm 13:59 Partly Cloudy 48 8.9 22 -5.6 36 36 WSW 18 30 29.82 1010 10 16 0.00 0.00
2:59 pm 14:59 Mostly Sunny 49 9.4 22 -5.6 35 35 W 16 26 29.80 1009 10 16 0.00 0.00
3:59 pm 15:59 Mostly Sunny 49 9.4 22 -5.6 35 35 W 16 26 29.81 1009 10 16 0.00 0.00
4:59 pm 16:59 Mostly Sunny 48 8.9 22 -5.6 36 36 WSW 14 22 29.82 1010 10 16 0.00 0.00
5:59 pm 17:59 Clear 45 7.2 23 -5 42 42 SW 5 7 29.83 1010 10 16 0.00 0.00
6:59 pm 18:59 Clear 42 5.6 25 -3.9 51 51 SSW 5 7 29.84 1011 10 16 0.00 0.00
7:59 pm 19:59 Clear 42 5.6 24 -4.4 49 49 SSW 7 11 29.84 1011 10 16 0.00 0.00
8:59 pm 20:59 Clear 42 5.6 23 -5 47 47 SSW 8 13 29.85 1011 10 16 0.00 0.00
9:59 pm 21:59 Clear 42 5.6 23 -5 47 47 SSW 9 15 29.85 1011 10 16 0.00 0.00
10:59 pm 22:59 Clear 41 5 23 -5 49 49 SSW 8 13 29.85 1011 10 16 0.00 0.00
11:59 pm 23:59 Clear 42 5.6 23 -5 47 47 SW 10 17 29.85 1011 10 16 0.00 0.00

Powered by AerisWeather